Погода в Рязанах

Россия / Омская область     56°34′16″N   75°12′56″E
темп.,
°C
ветер,
м/с
пор.,
м/с
влажн.,
%
обл.,
%
осадки,
мм/ч
давл.,
гПа
погр.,
м
28 сентября, вт
вт2800:00+3св2874100 0.0 1026227
03:00+3св2778100 0.0 1026192
06:00+3св2688100 0.0 1025158
09:00+4св388482 0.1 1024315
12:00+8в3561100 0.2 10231355
15:00+8всв4552100 0.1 10211608
18:00+6всв2564100 0.1 1021145
21:00+4св2878100 0.0 1019185
29 сентября, ср
ср2900:00+2св3784100 0.0 1018162
03:00+2св2686100 0.0 1017155
06:00+2св2788100 0.0 1017202
09:00+4св387692 0.0 1017375
12:00+7св4556100 0.1 10161566
15:00+7св3556100 0.1 10161338
18:00+6ссв3774100 0.3 1017459
21:00+4ссв388893 0.1 1018497
30 сентября, чт
чт3000:00+1с2797100 0.1 1017201
03:00+1ссз2698100 0.0 1018205
06:00+1ссз2696100 0.0 1018220
09:00+2с249274 0.0 1018291
12:00+3ссз2382100 0.0 1018643
15:00+3сз2376100 0.0 1017778
18:00+3сз2482100 0.1 1017333
21:00+2зсз1487100 0.0 1016221
1 октября, пт
пт100:00+2з2590100 0.0 1015335
03:00+1з2694100 0.0 1013283
06:000зюз2690100 0.0 1012201
09:00+2з3777100 0.0 1011331
12:00+3з3795100 0.3 1011433
15:00+2сз3799100 0.6 1012427
18:00+1ссз3997100 0.9 1014590
21:00−2сз289276 0.1 1016220
2 октября, сб
сб200:00−1сз399592 0.1 1017537
03:000сз4781100 0.0 1018875
06:00−1зсз4892100 0.1 1019642
09:000з3892100 0.1 1020609
12:00+2зсз4779100 0.8 10201011
15:00+3зсз4874100 0.4 10211189
18:00+2з4982100 0.6 1022774
21:00+1зсз3989100 0.3 1022552